SCP
0 0 0 0 0 0 0 0 0 0 0 0 0 0 0 0 0 0 0 0 0 0 0 0 0 0 0 0 0 0 0 0 0 1 1 1 1 1 1 0 0 0 0 0 0 0 0 0 0
0 0 0 0 0 0 0 0 0 0 0 0 0 0 0 0 0 0 0 0 0 0 0 0 0 0 0 0 0 0 0 0 0 0 1 1 1 1 1 1 0 0 0 0 0 0 0 0 0
0 0 0 0 0 0 0 0 0 0 0 0 0 0 0 0 0 0 0 0 0 0 0 0 0 0 0 0 0 0 0 0 0 0 0 0 1 1 1 1 1 1 0 0 0 0 0 0 0
0 0 0 0 0 0 0 0 0 0 0 0 0 0 0 0 0 0 0 0 0 0 0 0 0 0 0 0 0 0 0 0 0 0 0 0 0 0 1 1 1 1 0 0 0 0 0 0 0
0 0 0 0 0 0 0 0 0 0 0 0 0 0 0 0 0 0 0 0 0 0 0 0 0 0 0 0 0 0 0 0 0 0 0 0 0 0 0 0 0 0 0 0 0 0 0 0 0
0 0 0 0 0 0 0 0 0 0 0 0 0 0 0 0 0 0 0 0 0 0 0 0 0 0 0 0 0 0 0 0 0 0 0 0 0 0 0 0 0 0 0 0 0 0 0 0 0
0 0 0 0 0 0 0 0 0 0 0 0 0 0 0 0 0 0 0 0 0 0 0 0 0 0 0 0 0 0 0 0 0 0 0 0 0 0 0 0 0 0 0 0 0 0 0 0 0
0 0 0 0 0 0 0 0 0 0 0 0 0 0 0 0 0 0 0 0 0 0 0 0 0 0 0 0 0 0 0 0 0 0 0 0 0 0 0 0 0 0 0 0 0 0 0 0 0
0 0 0 0 0 0 0 0 0 0 0 0 0 0 0 0 0 0 0 0 0 0 0 0 0 0 0 0 0 0 0 0 0 0 0 0 0 0 0 0 0 0 0 0 0 0 0 0 0
0 0 0 0 0 0 0 0 0 0 0 0 0 0 0 0 0 0 0 0 0 0 0 0 0 0 0 0 0 0 0 0 0 0 0 0 0 0 0 0 0 0 0 0 0 0 0 0 0
0 0 0 0 0 0 0 0 0 0 0 0 0 0 0 0 0 0 0 0 0 0 0 0 0 0 0 0 0 0 0 0 0 0 0 0 0 0 0 0 0 0 0 0 0 0 0 0 0
0 0 0 0 0 0 0 0 0 0 0 0 0 0 0 0 0 0 0 0 0 0 0 0 0 0 0 0 0 0 0 0 0 0 0 0 0 0 0 0 0 0 0 0 0 0 0 0 0
0 0 0 0 0 0 0 0 0 0 0 0 0 0 0 0 0 0 0 0 0 0 0 0 0 0 0 0 0 0 0 0 0 0 0 0 0 0 0 0 0 0 0 0 0 0 0 0 0
0 0 0 0 0 0 0 0 0 0 0 0 0 0 0 0 0 0 0 0 0 0 0 0 0 0 0 0 0 0 0 0 0 0 0 0 0 0 0 0 0 0 0 0 0 0 0 0 0
0 0 0 0 0 0 0 0 0 0 0 0 0 0 0 0 0 0 0 0 0 0 0 0 0 0 0 0 0 0 0 0 0 0 0 0 0 0 0 0 0 0 0 0 0 0 0 0 0
0 0 0 0 0 0 0 0 0 0 0 0 0 0 0 0 0 0 0 0 0 0 0 0 0 0 0 0 0 0 0 0 0 0 0 0 0 0 0 0 0 0 0 0 0 0 0 0 0
0 0 0 0 0 0 0 0 0 0 0 0 0 0 0 0 0 0 0 0 0 0 0 0 0 0 0 0 0 0 0 0 0 0 0 0 0 0 0 0 0 0 0 0 0 0 0 0 0
0 0 0 0 0 0 0 0 0 0 0 0 0 0 0 0 0 0 0 0 0 0 0 0 0 0 0 0 0 0 0 0 0 0 0 0 0 0 0 0 0 0 0 0 0 0 0 -0 0
0 0 0 0 0 0 0 0 0 0 0 0 0 0 0 0 0 0 0 0 0 0 0 0 0 0 0 0 0 0 0 0 0 0 0 0 0 0 0 0 0 0 0 0 0 0 0 0 0
0 0 0 0 0 0 0 0 0 0 0 0 0 0 0 0 0 0 0 0 0 0 0 0 0 0 0 0 0 0 0 0 0 0 0 0 0 0 0 0 0 0 0 0 0 0 0 -0 -0
0 0 0 0 0 0 0 0 0 0 0 0 0 0 0 0 0 0 0 0 0 0 0 0 0 0 0 0 0 0 0 0 0 0 0 0 0 0 0 0 0 0 0 0 0 0 0 -0 -0
0 0 0 0 0 0 0 0 0 0 0 0 0 0 0 0 0 0 0 0 0 0 0 0 0 0 0 0 0 0 0 0 0 0 0 0 0 0 0 0 0 0 0 0 0 0 0 -0 -0
0 0 0 0 0 0 0 0 0 0 0 0 0 0 0 0 0 0 0 0 0 0 0 0 0 0 0 0 0 0 0 0 0 0 0 0 0 0 0 0 0 0 0 0 0 0 0 0 0
0 0 0 0 0 0 0 0 0 0 0 0 0 0 0 0 0 0 0 0 0 0 0 0 0 0 0 0 0 0 0 0 0 0 0 0 0 0 0 0 0 0 0 0 0 0 0 0 0
0 0 0 0 0 0 0 0 0 0 0 0 0 0 0 0 0 0 0 0 0 0 0 0 0 0 0 0 0 0 0 0 0 0 0 0 0 0 0 0 0 0 0 0 0 0 0 0 0
0 0 0 0 0 0 0 0 0 0 0 0 0 0 0 0 0 0 0 0 0 0 0 0 0 0 0 0 0 0 0 0 0 0 0 0 0 0 0 0 0 0 0 0 0 0 0 0 0
0 0 0 0 0 0 0 0 0 0 0 0 0 0 0 0 0 0 0 0 0 0 0 0 0 0 0 0 0 0 0 0 0 0 0 0 0 0 0 0 0 0 0 0 0 0 0 0 0
0 0 0 0 0 0 0 0 0 0 0 0 0 0 0 0 0 0 0 0 0 0 0 0 0 0 0 0 0 0 0 0 0 0 0 0 0 0 0 0 0 0 0 0 0 0 0 0 0
0 0 0 0 0 0 0 0 0 0 0 0 0 0 0 0 0 0 0 0 0 0 0 0 0 0 0 0 0 0 0 0 0 0 0 0 0 0 0 0 0 0 0 0 0 0 0 0 0
0 0 0 0 0 0 0 0 0 0 0 0 0 0 0 0 0 0 0 0 0 0 0 0 0 0 0 0 0 0 0 0 0 0 0 0 0 0 0 0 0 0 0 0 0 0 0 0 0
Wind_Speed_500mb
17 15 18 3 8 10 6 10 4 2 6 5 34 10 15 12 2 5 25 28 25 22 17 14 14 13 10 7 6 5 4 3 3 4 5 5 5 5 6 6 6 7 7 7 8 8 8 8 7
17 14 6 7 9 6 10 9 3 7 26 51 39 22 11 5 7 22 21 26 23 22 16 18 17 12 9 8 6 5 4 5 6 9 9 8 9 9 9 9 9 9 10 11 10 9 10 9 8
19 11 2 8 7 6 5 8 6 31 35 12 13 19 9 8 22 22 25 28 21 19 15 16 19 16 10 8 7 6 7 8 11 12 11 12 13 12 12 11 11 12 13 14 15 14 11 12 12
14 2 10 8 2 10 9 3 13 23 6 6 29 13 13 11 23 25 28 29 21 16 14 11 15 12 9 9 6 6 7 11 12 13 14 15 16 16 16 16 15 17 18 18 18 17 18 16 14
6 5 8 6 8 9 9 3 46 14 14 20 21 15 8 22 24 29 26 22 17 13 11 11 9 10 10 6 5 6 6 8 8 10 14 16 17 20 22 21 22 23 24 24 24 23 22 21 21
3 5 10 1 8 9 7 17 11 10 15 19 17 16 11 31 33 31 25 21 17 14 13 15 13 10 10 9 7 6 5 6 7 9 12 13 16 18 21 23 25 26 28 29 29 30 29 27 25
9 7 8 6 6 12 6 9 9 8 8 13 19 8 19 34 31 27 27 25 23 20 17 16 13 14 12 9 9 8 6 4 6 8 12 14 16 18 21 24 27 29 29 28 30 33 35 35 32
2 8 2 5 4 6 8 7 5 12 8 13 9 14 16 48 39 34 34 32 27 22 20 19 18 14 10 8 11 8 6 5 8 10 13 15 17 20 23 24 28 29 31 32 33 33 33 35 37
1 8 1 5 2 6 6 5 5 10 18 9 2 22 28 58 45 41 38 33 25 19 17 18 18 16 14 11 10 11 10 10 12 14 15 17 21 24 26 28 30 33 34 35 35 37 37 37 38
7 7 13 8 4 6 4 9 16 8 11 13 22 22 64 55 47 41 35 29 24 18 16 19 21 19 15 13 14 15 16 14 14 16 17 18 20 23 26 29 30 33 36 39 39 41 42 42 44
3 8 7 5 5 4 8 8 11 21 4 18 44 68 59 51 44 37 28 19 16 17 15 16 18 19 16 15 14 16 17 15 13 14 18 20 21 23 25 25 27 28 30 33 34 35 39 42 45
10 8 8 5 4 1 4 16 11 9 10 26 56 59 62 58 52 43 34 22 15 11 11 12 16 17 16 14 13 14 13 12 11 10 11 14 17 21 24 26 29 29 29 29 30 31 32 35 39
1 11 26 22 12 5 13 7 13 10 23 46 57 57 59 56 51 42 33 27 18 12 12 12 13 13 12 10 11 9 9 10 12 13 14 14 15 18 20 24 27 29 31 30 29 30 30 29 30
15 23 37 23 21 9 11 5 4 19 46 55 59 59 58 58 54 48 39 27 17 12 9 8 8 8 8 6 4 4 7 11 14 15 16 18 19 21 23 25 28 30 31 33 34 33 31 31 30
19 11 16 15 10 10 21 5 12 36 53 55 56 58 61 63 56 43 33 29 22 18 13 12 13 13 10 7 5 3 7 12 16 18 21 23 26 26 27 28 29 31 31 32 34 35 36 34 30
9 6 7 10 5 3 20 14 26 52 63 60 60 60 59 56 46 39 33 27 18 13 12 11 11 11 10 9 7 8 10 14 19 20 21 23 25 27 29 30 30 32 35 35 36 37 35 35 35
9 7 7 16 6 5 5 15 8 67 62 55 66 63 58 50 45 40 34 25 17 13 9 8 7 7 7 7 8 12 15 17 18 19 20 21 22 24 27 29 31 32 34 37 40 40 43 45 43
8 5 8 13 11 5 5 17 3 39 41 48 41 55 54 53 49 40 34 26 19 14 8 4 4 6 7 10 13 15 14 16 17 18 19 20 22 24 25 28 31 33 35 36 39 41 43 47 49
10 7 14 13 11 7 6 9 9 29 22 26 35 49 54 55 48 44 37 26 20 12 5 6 7 7 10 16 21 20 18 18 20 21 24 24 26 26 27 28 30 31 34 35 38 41 43 46 48
16 18 15 13 6 5 11 17 17 18 32 58 60 49 58 58 50 49 41 30 22 16 7 7 7 7 8 13 20 18 13 14 17 20 22 22 23 25 28 29 29 32 33 36 38 41 44 46 51
13 12 9 10 7 3 7 11 11 9 27 30 42 43 57 71 67 58 47 36 27 14 7 5 8 7 6 8 13 14 13 13 16 18 19 21 25 27 29 30 30 32 34 37 38 39 42 44 44
12 9 7 6 2 9 5 15 10 10 9 11 27 42 63 75 71 63 52 41 27 16 7 4 8 8 5 5 9 15 16 13 12 16 20 22 25 28 30 31 33 34 34 34 35 35 36 38 40
13 10 11 9 6 2 4 5 5 5 7 2 17 41 62 80 84 71 55 40 26 11 9 6 10 7 5 8 8 7 7 5 8 13 19 21 22 27 30 32 32 32 33 33 32 31 34 33 32
2 3 7 6 6 4 15 16 7 2 3 10 6 20 47 63 73 64 51 37 20 20 16 9 9 7 6 5 5 3 6 8 8 10 17 23 24 27 30 30 30 30 29 29 28 29 29 29 27
7 7 5 6 2 10 5 4 13 2 7 11 8 31 46 63 68 63 52 33 33 31 19 10 12 8 7 6 4 5 4 9 12 17 21 23 26 27 27 28 27 28 27 27 25 27 27 26 27
14 17 10 11 7 6 7 10 9 2 7 6 20 36 47 60 65 58 40 46 42 30 19 15 14 11 9 8 6 2 9 10 13 18 23 24 25 25 26 27 27 26 25 25 25 27 26 25 24
9 9 12 6 1 3 8 8 4 5 3 5 22 39 53 63 65 55 59 49 41 28 22 18 16 13 12 10 6 4 6 10 15 20 20 18 20 22 25 26 26 25 27 27 27 28 28 28 25
10 11 6 3 6 9 8 8 10 11 14 12 19 38 56 63 64 64 58 50 39 30 25 23 19 16 13 13 8 4 6 9 13 14 14 18 20 23 25 25 25 25 26 28 29 31 33 32 29
8 3 8 6 8 7 3 11 10 19 20 28 32 53 68 73 73 67 56 49 39 31 26 23 20 17 16 13 10 4 3 6 9 12 15 16 16 21 24 24 23 24 25 28 29 32 35 35 33
4 7 5 6 5 5 5 15 7 16 18 32 43 65 68 70 70 62 57 50 41 32 28 25 20 18 17 15 11 6 4 5 7 10 13 17 19 24 27 27 26 26 27 28 32 34 36 38 38
Wind_Direction_500mb
339 317 324 60 50 58 276 281 273 19 75 188 146 128 119 47 61 176 146 157 152 162 171 183 185 183 176 172 178 187 193 198 230 245 234 227 228 228 229 239 253 263 263 275 299 309 318 334 334
335 330 328 96 86 48 294 268 163 176 127 107 99 97 74 113 84 133 136 134 152 169 187 199 189 179 180 184 196 209 235 255 257 248 243 243 246 252 261 268 274 277 279 275 276 286 294 303 307
331 335 42 89 105 166 216 286 22 132 126 112 102 91 96 117 136 144 139 143 142 167 173 186 184 180 182 201 224 240 253 256 255 256 255 255 255 259 263 270 279 279 275 275 279 285 287 291 293
328 355 62 78 272 256 212 107 135 151 95 135 131 55 99 151 149 152 147 145 156 161 169 194 181 179 201 224 238 254 249 247 249 254 258 262 262 265 264 262 264 270 275 277 280 281 284 281 275
331 45 56 60 282 257 276 341 157 173 126 138 160 152 112 155 155 157 154 151 163 170 196 204 165 180 181 199 206 211 217 238 248 256 260 263 267 269 272 272 270 269 270 273 277 278 279 280 282
57 66 58 81 265 284 343 54 110 86 98 128 102 103 138 154 156 158 167 175 187 196 185 162 163 180 198 197 210 219 229 243 256 259 266 275 279 282 283 282 281 278 275 274 274 273 274 273 270
111 82 176 232 263 332 336 12 52 73 75 60 134 84 146 163 157 163 175 181 182 186 178 175 187 202 216 217 215 225 226 228 251 267 277 284 285 283 281 282 283 286 288 288 280 275 269 269 269
75 91 113 256 308 324 333 95 84 82 97 110 158 159 182 169 165 173 182 183 185 184 183 183 193 197 199 209 227 223 221 245 268 279 284 285 285 286 284 284 285 287 287 285 282 281 279 273 270
245 62 192 256 150 254 185 132 48 96 112 88 92 166 173 162 169 179 178 172 172 178 186 192 199 207 212 222 241 248 256 269 281 285 288 288 287 285 284 285 286 286 287 286 284 281 278 275 273
88 111 220 216 229 215 109 145 151 133 110 70 99 146 159 164 171 179 178 172 167 174 191 202 211 221 226 234 249 266 281 287 291 296 298 299 299 298 297 295 291 287 286 287 283 279 275 273 272
350 192 230 280 230 295 111 126 140 134 205 182 159 150 162 167 174 180 178 173 176 182 199 207 214 222 230 240 249 267 283 297 302 304 309 311 312 310 306 303 300 296 292 287 287 283 279 276 274
341 324 320 319 279 278 223 144 121 179 207 183 165 163 166 175 181 185 188 194 197 208 219 214 213 215 220 230 243 259 275 292 305 309 313 314 313 315 316 318 319 319 317 313 307 302 297 288 283
289 328 319 305 286 248 177 219 160 150 148 162 165 172 177 181 183 189 193 197 208 217 216 211 210 208 208 217 226 246 273 301 321 328 333 334 333 330 327 327 326 326 327 327 326 324 321 314 306
304 298 298 303 277 256 156 239 355 168 156 163 171 180 184 186 190 190 193 195 203 232 234 225 212 201 186 198 202 254 307 325 325 330 338 341 338 336 336 335 335 334 334 333 333 332 332 331 329
292 305 319 287 287 215 140 17 247 185 172 172 180 181 181 186 193 203 204 210 212 215 222 214 206 201 189 185 201 251 307 315 313 327 335 335 334 336 337 335 334 335 335 334 332 331 331 331 332
348 41 335 283 308 289 165 247 235 185 179 183 185 185 184 187 192 200 208 217 214 218 220 222 217 211 207 219 246 276 296 310 319 330 332 333 334 333 330 329 328 329 330 331 329 329 329 328 330
358 258 256 314 319 281 184 273 323 183 185 191 196 194 191 185 187 194 201 209 207 219 226 219 209 204 210 228 260 283 291 297 308 321 325 328 331 335 335 331 331 330 330 329 331 333 333 331 332
231 268 287 275 291 343 204 265 85 194 197 205 202 201 196 189 191 191 195 196 204 210 218 259 250 227 221 244 255 260 272 298 316 324 334 338 333 334 336 337 336 335 333 333 333 335 336 337 337
303 260 259 267 286 338 306 295 280 187 228 244 219 207 196 186 182 186 188 187 201 194 214 240 232 229 222 232 243 252 269 288 305 321 333 335 336 340 341 340 336 336 338 341 339 340 341 342 342
275 270 266 274 320 278 319 286 274 179 220 220 221 204 194 182 178 177 179 190 200 201 199 266 273 244 224 219 235 241 254 284 304 318 322 328 337 339 341 345 346 344 345 346 347 347 349 352 356
251 236 237 230 308 315 323 282 257 242 246 242 236 220 204 195 184 179 179 189 193 181 185 247 276 280 268 245 241 239 259 283 297 304 315 329 340 342 346 350 353 350 348 350 351 352 353 357 0
239 201 193 170 111 258 72 290 218 235 239 229 241 202 201 195 192 182 182 184 184 179 182 245 280 276 256 232 239 248 251 256 291 320 329 338 341 342 350 351 354 352 354 352 354 355 355 357 1
235 163 173 173 168 114 281 276 239 150 272 76 314 211 197 194 193 183 184 181 174 188 198 243 267 260 224 204 210 218 236 300 334 331 330 343 345 345 350 351 353 351 354 355 355 357 359 360 3
38 106 55 63 128 249 206 183 282 197 276 297 13 175 172 173 180 179 176 168 164 200 203 215 257 247 229 228 220 252 336 338 324 331 333 345 350 351 352 356 356 353 353 355 355 356 358 360 360
156 75 307 321 335 240 238 198 244 268 337 286 193 155 165 177 178 173 168 170 200 203 201 211 235 219 231 247 267 313 349 337 343 354 348 352 352 357 358 360 1 360 1 358 358 358 359 360 356
194 168 174 234 207 251 330 242 261 55 18 26 146 163 170 174 178 176 185 198 197 194 196 214 216 210 218 244 256 335 353 350 349 355 352 354 359 6 11 11 8 7 5 3 2 4 3 0 357
185 175 190 144 7 90 228 296 223 131 60 152 152 170 177 182 183 187 198 198 195 195 200 210 218 216 217 231 252 334 356 352 353 354 355 7 17 22 21 21 20 19 15 12 9 16 14 9 2
169 157 93 16 222 243 259 257 231 221 216 205 200 191 187 186 188 199 201 198 197 202 204 208 215 216 218 227 239 289 349 347 353 3 18 34 37 32 27 26 26 26 27 27 23 27 23 18 14
358 0 46 135 146 203 274 258 229 200 192 203 209 203 195 194 200 203 200 200 201 203 207 211 210 216 219 224 231 251 327 3 23 43 49 47 45 39 34 35 36 37 36 36 32 31 29 26 26
189 255 130 135 257 222 172 255 344 223 202 194 206 210 205 205 208 206 203 203 202 205 212 211 211 213 211 204 207 216 150 94 74 74 69 61 57 50 48 49 46 43 40 39 37 35 32 31 30
Wind_Speed_850mb
17 15 18 3 8 10 6 10 4 2 6 5 34 10 15 12 2 5 25 28 25 22 17 14 14 13 10 7 6 5 4 3 3 4 5 5 5 5 6 6 6 7 7 7 8 8 8 8 7
17 14 6 7 9 6 10 9 3 7 26 51 39 22 11 5 7 22 21 26 23 22 16 18 17 12 9 8 6 5 4 5 6 9 9 8 9 9 9 9 9 9 10 11 10 9 10 9 8
19 11 2 8 7 6 5 8 6 31 35 12 13 19 9 8 22 22 25 28 21 19 15 16 19 16 10 8 7 6 7 8 11 12 11 12 13 12 12 11 11 12 13 14 15 14 11 12 12
14 2 10 8 2 10 9 3 13 23 6 6 29 13 13 11 23 25 28 29 21 16 14 11 15 12 9 9 6 6 7 11 12 13 14 15 16 16 16 16 15 17 18 18 18 17 18 16 14
6 5 8 6 8 9 9 3 46 14 14 20 21 15 8 22 24 29 26 22 17 13 11 11 9 10 10 6 5 6 6 8 8 10 14 16 17 20 22 21 22 23 24 24 24 23 22 21 21
3 5 10 1 8 9 7 17 11 10 15 19 17 16 11 31 33 31 25 21 17 14 13 15 13 10 10 9 7 6 5 6 7 9 12 13 16 18 21 23 25 26 28 29 29 30 29 27 25
9 7 8 6 6 12 6 9 9 8 8 13 19 8 19 34 31 27 27 25 23 20 17 16 13 14 12 9 9 8 6 4 6 8 12 14 16 18 21 24 27 29 29 28 30 33 35 35 32
2 8 2 5 4 6 8 7 5 12 8 13 9 14 16 48 39 34 34 32 27 22 20 19 18 14 10 8 11 8 6 5 8 10 13 15 17 20 23 24 28 29 31 32 33 33 33 35 37
1 8 1 5 2 6 6 5 5 10 18 9 2 22 28 58 45 41 38 33 25 19 17 18 18 16 14 11 10 11 10 10 12 14 15 17 21 24 26 28 30 33 34 35 35 37 37 37 38
7 7 13 8 4 6 4 9 16 8 11 13 22 22 64 55 47 41 35 29 24 18 16 19 21 19 15 13 14 15 16 14 14 16 17 18 20 23 26 29 30 33 36 39 39 41 42 42 44
3 8 7 5 5 4 8 8 11 21 4 18 44 68 59 51 44 37 28 19 16 17 15 16 18 19 16 15 14 16 17 15 13 14 18 20 21 23 25 25 27 28 30 33 34 35 39 42 45
10 8 8 5 4 1 4 16 11 9 10 26 56 59 62 58 52 43 34 22 15 11 11 12 16 17 16 14 13 14 13 12 11 10 11 14 17 21 24 26 29 29 29 29 30 31 32 35 39
1 11 26 22 12 5 13 7 13 10 23 46 57 57 59 56 51 42 33 27 18 12 12 12 13 13 12 10 11 9 9 10 12 13 14 14 15 18 20 24 27 29 31 30 29 30 30 29 30
15 23 37 23 21 9 11 5 4 19 46 55 59 59 58 58 54 48 39 27 17 12 9 8 8 8 8 6 4 4 7 11 14 15 16 18 19 21 23 25 28 30 31 33 34 33 31 31 30
19 11 16 15 10 10 21 5 12 36 53 55 56 58 61 63 56 43 33 29 22 18 13 12 13 13 10 7 5 3 7 12 16 18 21 23 26 26 27 28 29 31 31 32 34 35 36 34 30
9 6 7 10 5 3 20 14 26 52 63 60 60 60 59 56 46 39 33 27 18 13 12 11 11 11 10 9 7 8 10 14 19 20 21 23 25 27 29 30 30 32 35 35 36 37 35 35 35
9 7 7 16 6 5 5 15 8 67 62 55 66 63 58 50 45 40 34 25 17 13 9 8 7 7 7 7 8 12 15 17 18 19 20 21 22 24 27 29 31 32 34 37 40 40 43 45 43
8 5 8 13 11 5 5 17 3 39 41 48 41 55 54 53 49 40 34 26 19 14 8 4 4 6 7 10 13 15 14 16 17 18 19 20 22 24 25 28 31 33 35 36 39 41 43 47 49
10 7 14 13 11 7 6 9 9 29 22 26 35 49 54 55 48 44 37 26 20 12 5 6 7 7 10 16 21 20 18 18 20 21 24 24 26 26 27 28 30 31 34 35 38 41 43 46 48
16 18 15 13 6 5 11 17 17 18 32 58 60 49 58 58 50 49 41 30 22 16 7 7 7 7 8 13 20 18 13 14 17 20 22 22 23 25 28 29 29 32 33 36 38 41 44 46 51
13 12 9 10 7 3 7 11 11 9 27 30 42 43 57 71 67 58 47 36 27 14 7 5 8 7 6 8 13 14 13 13 16 18 19 21 25 27 29 30 30 32 34 37 38 39 42 44 44
12 9 7 6 2 9 5 15 10 10 9 11 27 42 63 75 71 63 52 41 27 16 7 4 8 8 5 5 9 15 16 13 12 16 20 22 25 28 30 31 33 34 34 34 35 35 36 38 40
13 10 11 9 6 2 4 5 5 5 7 2 17 41 62 80 84 71 55 40 26 11 9 6 10 7 5 8 8 7 7 5 8 13 19 21 22 27 30 32 32 32 33 33 32 31 34 33 32
2 3 7 6 6 4 15 16 7 2 3 10 6 20 47 63 73 64 51 37 20 20 16 9 9 7 6 5 5 3 6 8 8 10 17 23 24 27 30 30 30 30 29 29 28 29 29 29 27
7 7 5 6 2 10 5 4 13 2 7 11 8 31 46 63 68 63 52 33 33 31 19 10 12 8 7 6 4 5 4 9 12 17 21 23 26 27 27 28 27 28 27 27 25 27 27 26 27
14 17 10 11 7 6 7 10 9 2 7 6 20 36 47 60 65 58 40 46 42 30 19 15 14 11 9 8 6 2 9 10 13 18 23 24 25 25 26 27 27 26 25 25 25 27 26 25 24
9 9 12 6 1 3 8 8 4 5 3 5 22 39 53 63 65 55 59 49 41 28 22 18 16 13 12 10 6 4 6 10 15 20 20 18 20 22 25 26 26 25 27 27 27 28 28 28 25
10 11 6 3 6 9 8 8 10 11 14 12 19 38 56 63 64 64 58 50 39 30 25 23 19 16 13 13 8 4 6 9 13 14 14 18 20 23 25 25 25 25 26 28 29 31 33 32 29
8 3 8 6 8 7 3 11 10 19 20 28 32 53 68 73 73 67 56 49 39 31 26 23 20 17 16 13 10 4 3 6 9 12 15 16 16 21 24 24 23 24 25 28 29 32 35 35 33
4 7 5 6 5 5 5 15 7 16 18 32 43 65 68 70 70 62 57 50 41 32 28 25 20 18 17 15 11 6 4 5 7 10 13 17 19 24 27 27 26 26 27 28 32 34 36 38 38
Wind_Direction_850mb
339 317 324 60 50 58 276 281 273 19 75 188 146 128 119 47 61 176 146 157 152 162 171 183 185 183 176 172 178 187 193 198 230 245 234 227 228 228 229 239 253 263 263 275 299 309 318 334 334
335 330 328 96 86 48 294 268 163 176 127 107 99 97 74 113 84 133 136 134 152 169 187 199 189 179 180 184 196 209 235 255 257 248 243 243 246 252 261 268 274 277 279 275 276 286 294 303 307
331 335 42 89 105 166 216 286 22 132 126 112 102 91 96 117 136 144 139 143 142 167 173 186 184 180 182 201 224 240 253 256 255 256 255 255 255 259 263 270 279 279 275 275 279 285 287 291 293
328 355 62 78 272 256 212 107 135 151 95 135 131 55 99 151 149 152 147 145 156 161 169 194 181 179 201 224 238 254 249 247 249 254 258 262 262 265 264 262 264 270 275 277 280 281 284 281 275
331 45 56 60 282 257 276 341 157 173 126 138 160 152 112 155 155 157 154 151 163 170 196 204 165 180 181 199 206 211 217 238 248 256 260 263 267 269 272 272 270 269 270 273 277 278 279 280 282
57 66 58 81 265 284 343 54 110 86 98 128 102 103 138 154 156 158 167 175 187 196 185 162 163 180 198 197 210 219 229 243 256 259 266 275 279 282 283 282 281 278 275 274 274 273 274 273 270
111 82 176 232 263 332 336 12 52 73 75 60 134 84 146 163 157 163 175 181 182 186 178 175 187 202 216 217 215 225 226 228 251 267 277 284 285 283 281 282 283 286 288 288 280 275 269 269 269
75 91 113 256 308 324 333 95 84 82 97 110 158 159 182 169 165 173 182 183 185 184 183 183 193 197 199 209 227 223 221 245 268 279 284 285 285 286 284 284 285 287 287 285 282 281 279 273 270
245 62 192 256 150 254 185 132 48 96 112 88 92 166 173 162 169 179 178 172 172 178 186 192 199 207 212 222 241 248 256 269 281 285 288 288 287 285 284 285 286 286 287 286 284 281 278 275 273
88 111 220 216 229 215 109 145 151 133 110 70 99 146 159 164 171 179 178 172 167 174 191 202 211 221 226 234 249 266 281 287 291 296 298 299 299 298 297 295 291 287 286 287 283 279 275 273 272
350 192 230 280 230 295 111 126 140 134 205 182 159 150 162 167 174 180 178 173 176 182 199 207 214 222 230 240 249 267 283 297 302 304 309 311 312 310 306 303 300 296 292 287 287 283 279 276 274
341 324 320 319 279 278 223 144 121 179 207 183 165 163 166 175 181 185 188 194 197 208 219 214 213 215 220 230 243 259 275 292 305 309 313 314 313 315 316 318 319 319 317 313 307 302 297 288 283
289 328 319 305 286 248 177 219 160 150 148 162 165 172 177 181 183 189 193 197 208 217 216 211 210 208 208 217 226 246 273 301 321 328 333 334 333 330 327 327 326 326 327 327 326 324 321 314 306
304 298 298 303 277 256 156 239 355 168 156 163 171 180 184 186 190 190 193 195 203 232 234 225 212 201 186 198 202 254 307 325 325 330 338 341 338 336 336 335 335 334 334 333 333 332 332 331 329
292 305 319 287 287 215 140 17 247 185 172 172 180 181 181 186 193 203 204 210 212 215 222 214 206 201 189 185 201 251 307 315 313 327 335 335 334 336 337 335 334 335 335 334 332 331 331 331 332
348 41 335 283 308 289 165 247 235 185 179 183 185 185 184 187 192 200 208 217 214 218 220 222 217 211 207 219 246 276 296 310 319 330 332 333 334 333 330 329 328 329 330 331 329 329 329 328 330
358 258 256 314 319 281 184 273 323 183 185 191 196 194 191 185 187 194 201 209 207 219 226 219 209 204 210 228 260 283 291 297 308 321 325 328 331 335 335 331 331 330 330 329 331 333 333 331 332
231 268 287 275 291 343 204 265 85 194 197 205 202 201 196 189 191 191 195 196 204 210 218 259 250 227 221 244 255 260 272 298 316 324 334 338 333 334 336 337 336 335 333 333 333 335 336 337 337
303 260 259 267 286 338 306 295 280 187 228 244 219 207 196 186 182 186 188 187 201 194 214 240 232 229 222 232 243 252 269 288 305 321 333 335 336 340 341 340 336 336 338 341 339 340 341 342 342
275 270 266 274 320 278 319 286 274 179 220 220 221 204 194 182 178 177 179 190 200 201 199 266 273 244 224 219 235 241 254 284 304 318 322 328 337 339 341 345 346 344 345 346 347 347 349 352 356
251 236 237 230 308 315 323 282 257 242 246 242 236 220 204 195 184 179 179 189 193 181 185 247 276 280 268 245 241 239 259 283 297 304 315 329 340 342 346 350 353 350 348 350 351 352 353 357 0
239 201 193 170 111 258 72 290 218 235 239 229 241 202 201 195 192 182 182 184 184 179 182 245 280 276 256 232 239 248 251 256 291 320 329 338 341 342 350 351 354 352 354 352 354 355 355 357 1
235 163 173 173 168 114 281 276 239 150 272 76 314 211 197 194 193 183 184 181 174 188 198 243 267 260 224 204 210 218 236 300 334 331 330 343 345 345 350 351 353 351 354 355 355 357 359 360 3
38 106 55 63 128 249 206 183 282 197 276 297 13 175 172 173 180 179 176 168 164 200 203 215 257 247 229 228 220 252 336 338 324 331 333 345 350 351 352 356 356 353 353 355 355 356 358 360 360
156 75 307 321 335 240 238 198 244 268 337 286 193 155 165 177 178 173 168 170 200 203 201 211 235 219 231 247 267 313 349 337 343 354 348 352 352 357 358 360 1 360 1 358 358 358 359 360 356
194 168 174 234 207 251 330 242 261 55 18 26 146 163 170 174 178 176 185 198 197 194 196 214 216 210 218 244 256 335 353 350 349 355 352 354 359 6 11 11 8 7 5 3 2 4 3 0 357
185 175 190 144 7 90 228 296 223 131 60 152 152 170 177 182 183 187 198 198 195 195 200 210 218 216 217 231 252 334 356 352 353 354 355 7 17 22 21 21 20 19 15 12 9 16 14 9 2
169 157 93 16 222 243 259 257 231 221 216 205 200 191 187 186 188 199 201 198 197 202 204 208 215 216 218 227 239 289 349 347 353 3 18 34 37 32 27 26 26 26 27 27 23 27 23 18 14
358 0 46 135 146 203 274 258 229 200 192 203 209 203 195 194 200 203 200 200 201 203 207 211 210 216 219 224 231 251 327 3 23 43 49 47 45 39 34 35 36 37 36 36 32 31 29 26 26
189 255 130 135 257 222 172 255 344 223 202 194 206 210 205 205 208 206 203 203 202 205 212 211 211 213 211 204 207 216 150 94 74 74 69 61 57 50 48 49 46 43 40 39 37 35 32 31 30